Total_Precipitation_Accumulation
1.92 2.38 2.94 3.78 4.89 5.86 6.18 5.71 5.26 5.01 4.66 4.31 3.74 3.47 3.59 3.54 3.31 2.95 2.58 2.53 2.45 2.54 2.85 2.61 2.85 2.68 2.84 2.98 3.10 3.30 3.35 3.23 3.36 3.59 3.56 3.15 2.76 2.69 2.59 2.69 2.98 2.85 2.78
2.15 2.85 3.86 4.43 4.72 4.89 4.65 4.35 4.18 4.04 3.56 3.32 3.27 3.11 3.17 2.92 2.78 2.66 2.76 2.35 2.20 2.29 2.32 2.72 2.72 2.76 3.02 3.02 3.02 3.23 3.17 3.05 3.16 3.50 3.78 3.45 3.20 2.71 2.12 2.29 2.35 2.48 2.77
2.34 3.15 3.73 3.85 3.61 3.28 3.15 3.14 3.28 3.09 3.01 3.11 3.09 3.03 3.14 2.84 2.65 2.62 2.76 2.34 2.02 2.01 2.15 2.33 2.56 2.81 2.70 2.91 3.02 2.93 3.10 3.17 3.11 3.15 3.67 3.67 3.38 2.92 2.36 2.11 2.19 2.40 2.73
1.89 2.32 2.60 2.48 2.57 2.69 2.71 2.85 2.98 2.80 2.85 2.89 2.68 2.61 2.57 2.46 2.44 2.50 2.60 2.62 2.17 1.98 1.99 2.10 2.32 2.55 2.45 2.77 2.55 2.76 3.17 3.22 2.99 2.95 2.94 3.03 3.18 3.22 2.82 2.40 2.12 2.20 2.40
1.36 1.50 1.60 1.71 1.90 2.02 2.19 2.46 2.77 2.80 2.69 2.57 2.57 2.62 2.46 2.47 2.46 2.48 2.59 2.68 2.46 2.16 1.93 2.03 2.27 2.39 2.36 2.46 2.53 2.95 2.99 2.97 2.96 2.97 2.99 2.98 2.94 2.84 2.83 2.64 2.33 2.11 1.90
1.22 1.33 1.33 1.43 1.60 1.73 1.94 2.20 2.60 2.76 2.73 2.57 2.49 2.52 2.58 2.59 2.53 2.57 2.56 2.38 2.35 2.31 2.11 2.10 2.27 2.26 2.28 2.35 2.44 2.75 2.76 2.93 3.09 3.10 2.97 3.05 2.90 2.78 2.95 2.59 2.28 2.11 1.61
1.14 1.33 1.35 1.33 1.41 1.54 1.67 1.78 2.07 2.39 2.54 2.51 2.48 2.47 2.65 2.57 2.36 2.27 2.24 2.22 2.01 1.96 2.03 2.10 2.29 2.19 2.20 2.29 2.62 2.76 2.72 2.89 2.94 2.90 2.82 2.85 2.60 2.65 2.76 2.58 2.10 1.95 1.60
1.08 1.21 1.26 1.23 1.28 1.34 1.50 1.65 1.98 2.17 2.36 2.41 2.40 2.42 2.48 2.37 2.20 2.25 2.07 2.05 1.96 1.87 1.96 2.06 2.06 2.06 2.13 2.18 2.66 2.54 2.61 2.78 2.70 2.52 2.84 2.71 2.36 2.57 2.68 2.71 2.82 2.42 2.06
0.91 1.01 1.08 1.21 1.29 1.27 1.43 1.57 1.86 2.23 2.46 2.56 2.62 2.57 2.54 2.50 2.44 2.37 2.15 1.96 2.08 1.97 2.06 2.14 2.14 2.15 2.32 2.49 2.72 2.54 2.58 2.76 2.57 2.56 2.84 2.67 2.41 2.49 2.55 2.74 3.07 3.12 2.64
0.89 1.09 1.30 1.38 1.26 1.13 1.24 1.38 1.68 2.18 2.47 2.65 2.63 2.47 2.66 2.55 2.51 2.42 2.21 2.04 2.05 2.10 2.24 2.37 2.35 2.41 2.43 2.54 2.69 2.46 2.59 2.66 2.55 2.65 2.85 2.80 2.62 2.70 2.65 2.74 2.98 3.22 3.09
0.94 1.18 1.48 1.49 1.32 1.12 1.08 1.24 1.63 1.97 2.22 2.43 2.51 2.37 2.32 2.25 2.27 2.28 2.21 2.17 2.18 2.17 2.19 2.31 2.36 2.34 2.38 2.50 2.62 2.40 2.48 2.49 2.53 2.56 2.70 2.78 3.04 3.03 2.93 3.06 3.09 3.15 3.22
1.01 1.07 1.25 1.43 1.31 1.22 1.19 1.40 1.71 1.89 2.01 2.12 2.17 2.14 2.14 2.13 2.07 2.01 2.09 2.17 2.09 2.00 2.08 2.15 2.17 2.11 2.24 2.44 2.45 2.32 2.41 2.47 2.45 2.65 2.94 2.86 3.02 3.10 3.14 3.27 3.05 3.10 3.44
0.86 0.91 1.05 1.19 1.29 1.26 1.28 1.52 1.77 1.84 1.88 1.85 1.91 1.90 1.92 1.90 1.87 1.87 1.96 2.07 2.08 2.07 2.10 2.14 2.08 2.06 2.14 2.29 2.28 2.43 2.54 2.53 2.59 2.79 2.93 3.03 3.38 3.17 3.21 3.19 3.03 3.05 3.29
0.87 0.88 0.98 1.19 1.27 1.32 1.34 1.41 1.61 1.78 1.75 1.72 1.83 1.98 2.05 2.10 2.08 2.00 2.06 2.18 2.32 2.31 2.37 2.37 2.38 2.42 2.37 2.35 2.42 2.59 2.68 2.68 2.70 2.88 2.96 3.04 3.22 3.30 3.47 3.42 3.43 3.56 3.73
0.88 0.88 0.96 1.14 1.29 1.46 1.53 1.53 1.57 1.65 1.80 1.95 2.08 2.35 2.53 2.53 2.39 2.33 2.40 2.44 2.53 2.47 2.67 2.69 2.68 2.78 2.73 2.51 2.69 2.81 2.79 3.00 2.93 2.99 2.97 2.98 3.20 3.34 3.48 3.25 3.44 3.81 3.97
0.88 0.84 0.95 1.15 1.22 1.28 1.39 1.44 1.51 1.60 1.70 1.82 2.00 2.27 2.53 2.68 2.62 2.62 2.78 2.80 2.76 2.84 2.96 2.95 2.92 2.88 2.54 2.76 2.95 2.97 3.06 3.16 3.10 3.04 3.08 3.05 3.07 2.99 2.97 2.97 3.13 3.41 3.58
0.91 0.91 0.94 1.03 1.24 1.20 1.23 1.38 1.49 1.67 1.87 2.13 2.35 2.50 2.73 2.90 2.84 2.72 2.73 2.76 2.81 2.80 2.87 2.93 3.01 2.82 2.77 2.93 2.76 2.79 2.77 2.86 2.95 3.00 3.05 2.80 2.65 2.86 2.63 2.76 2.88 2.82 2.84
1.21 1.26 1.34 1.31 1.40 1.37 1.39 1.50 1.65 1.85 1.97 2.11 2.34 2.53 2.74 2.84 2.91 2.93 2.87 2.95 3.06 3.09 3.12 3.12 3.12 3.03 2.85 2.85 2.64 2.73 2.59 2.59 2.64 2.71 2.79 2.77 2.66 2.67 2.77 2.77 2.64 2.36 2.26
1.29 1.41 1.51 1.52 1.53 1.60 1.76 1.95 2.02 2.20 2.37 2.49 2.67 2.76 2.80 2.87 2.91 2.95 3.08 3.21 3.32 3.32 3.35 3.33 3.31 3.25 3.21 3.20 2.85 2.77 2.56 2.59 2.60 2.68 2.72 2.69 2.51 2.68 2.66 2.58 2.49 2.32 2.13
1.43 1.52 1.56 1.61 1.81 1.86 1.94 2.12 2.35 2.52 2.70 2.86 2.97 3.04 3.10 3.10 3.06 3.07 3.19 3.28 3.35 3.38 3.41 3.30 3.30 3.22 3.16 3.28 3.03 2.85 2.56 2.56 2.60 2.75 2.80 2.80 2.56 2.64 2.58 2.44 2.43 2.27 2.17
1.66 1.70 1.75 1.84 1.97 2.03 2.09 2.27 2.55 2.79 3.00 3.03 3.08 3.16 3.26 3.43 3.56 3.60 3.41 3.27 3.28 3.38 3.43 3.37 3.39 3.35 3.27 3.27 2.91 2.76 2.62 2.66 2.71 2.67 2.64 2.69 2.72 2.45 2.29 2.18 2.12 2.18 2.33
1.90 1.95 2.00 2.05 2.06 2.14 2.26 2.36 2.60 2.74 2.93 2.97 3.10 3.20 3.26 3.19 3.21 3.53 3.61 3.58 3.47 3.34 3.32 3.36 3.26 3.15 3.10 2.94 2.61 2.42 2.41 2.49 2.52 2.52 2.55 2.60 2.63 2.32 2.07 1.82 1.75 1.87 1.94
1.88 1.91 1.99 2.11 2.06 2.06 2.24 2.50 2.57 2.64 2.68 2.80 2.94 3.17 3.28 3.35 3.33 3.34 3.45 3.47 3.38 3.17 2.94 2.95 2.99 2.97 2.97 2.87 2.56 2.26 2.17 2.20 2.13 2.21 2.48 2.53 2.39 2.17 1.99 1.87 1.80 1.73 1.65
1.76 1.83 1.84 1.90 1.98 2.09 2.27 2.34 2.37 2.52 2.77 2.89 2.93 3.01 3.11 3.16 3.24 3.34 3.31 3.26 3.23 3.15 2.97 2.94 2.95 2.95 2.88 2.67 2.38 2.20 2.09 2.05 2.01 2.12 2.36 2.45 2.43 2.27 2.12 1.99 1.84 1.63 1.60
1.68 1.77 1.87 1.91 1.99 2.05 2.23 2.37 2.41 2.47 2.62 2.71 2.68 2.77 2.93 3.02 3.10 3.24 3.31 3.16 3.04 3.07 2.95 2.98 3.15 3.04 2.78 2.58 2.42 2.15 2.04 2.03 2.13 2.22 2.31 2.45 2.48 2.44 2.36 2.18 2.04 1.91 1.76
1.70 1.82 1.89 1.97 2.01 2.06 2.15 2.21 2.29 2.42 2.57 2.64 2.68 2.68 2.71 2.86 2.96 2.92 2.98 3.02 2.76 2.69 2.52 2.56 2.63 2.62 2.50 2.39 2.31 2.17 2.08 2.06 2.12 2.10 2.16 2.43 2.50 2.51 2.48 2.37 2.20 2.03 1.90